ATLAS 5 CENTAUR R/B, 40731

Orbit data source: Space-Track

ATLAS 5 CENTAUR R/B, 40731 is space debris in MEO originally from a launch on Wed, 15 Jul 2015 UTC launched from the Air Force Eastern Test Range (AFETR). Debris objects in space refer to the collection of defunct objects orbiting the Earth. Examples of debris include non-operational satellites, rocket bodies, and fragments generated from explosions, collisions, or faulty payload assembly.

Loading next visibility...
Identifier
40731, 2015-033B
Orbit
MEO
Country
Flag of USUS
Related business
Flag of USUnited Launch Alliance/Lockheed Martin (US)
Manufacturer
LMSS Denver
Mission
Spacecraft
Bus & Motor
CENTAUR SEC, RL10C-1
Mass
~2,020 kg wet, 2,020 kg dry
Launch date (UTC)
2015-07-15 (10 years ago)
Launch vehicle
Unknown
Launch site
Air Force Eastern Test Range (AFETR)
Object type
Payload
Rocket body
Debris
Shape & HBR
Cyl + 1 Nozzle, 5.8 m
Radar Cross Section
32.260 m², Large (>1 m²)

Expand to show TLE details & history
Last TLE update: 4 days ago

TLE from 4 days ago
0 ATLAS 5 CENTAUR R/B
1 40731U 15033B   25257.93427170 -.00000013  00000-0  00000-0 0  9996
2 40731  54.8118 294.1732 0231555   5.2438 355.0558  1.90866868 70892
Epoch: 2025-09-14T22:25Z
TLE epoch observation values (Epoch: 2025-09-14T22:25:21.074Z)
Latitude
-0.00006°
Longitude
-36.29348°
Altitude
20,441.299 km
Speed
3.899 km/s
True Right ascension
19h 36m 45s
True Declination
0° 00' 00"
Sunlit
Object was in daylight at epoch
Visualization orbit readout
Latitude
Unknown
Longitude
Unknown
Altitude
Unknown
Speed
Unknown
Apparent Right ascension
Unknown
Apparent Declination
Unknown
Sunlit
N/A
Visualization observer readout
Local Sidereal Time
20:33:12
Azimuth
Unknown
Elevation
Unknown
Doppler factor
Unknown
Orbital elements
Apogee altitude
21,710.026 km
Perigee altitude
20,438.674 km
Semi-major axis
27,452.487 km
Eccentricity
0.02316
Inclination
54.8118°
RAAN
294.1732°
Arg. of periapsis
5.2438°
True anomaly
354.82033°
Mean anomaly
355.0558°
Eccentric anomaly
354.93876°
Mean motion
0.47717 °/min
Orbital period
754.45 mins
BSTAR
0
Loading maneuver chart data...
Computing Atmospheric mass density...
Loading historical data...
Loading historical data...
Loading historical data...
Loading historical data...
Loading historical data...
Loading historical data...
Loading historical data...
Other satellites on launch #33 in the year 2015 (2015-07-15 UTC)

Documentation

Showing up to 5 results
|